(70100) = 1999 JO121 = 2000 WR159

Discovered at Socorro on 1999-05-13 by LINEAR.

Orbit

Orbit type: Main Belt

Note: WebGL enabled browser required.

epoch2024-03-31.0
epoch JD2460400.5
perihelion date2023-05-19.17038
perihelion JD2460083.67038
argument of perihelion (°)342.05593
ascending node (°)230.68565
inclination (°)5.84388
eccentricity0.1330147
perihelion distance (AU)1.9830709
Tisserand w.r.t. Jupiter3.6
ΔV w.r.t. Earth (km/sec)8.9
semimajor axis (AU)2.2873178
mean anomaly (°)90.26925
mean daily motion (°/day)0.28491420
aphelion distance (AU)2.592
period (years)3.46
P-vector [x]-0.83987981
P-vector [y]-0.48467371
P-vector [z]-0.24432213
Q-vector [x]0.53702553
Q-vector [y]-0.80736810
Q-vector [z]-0.24445926
absolute magnitude16.07
phase slope0.15
uncertainty0
referenceMPEC 2024-C181
observations used1074
oppositions16
arc length (days)8851
first opposition used1999
last opposition used2023
residual rms (arc-secs)0.64
perturbers coarse indicatorM-v
perturbers precise indicator003Ek
first observation date used1999-05-13.0
last observation date used2023-08-06.0
computer nameMPCLINUX
JD of orbit computation2456966.879744
perihelion JD uncertainty (days)1.0036E-04
argument of perihelion uncertainty (°)7.2502E-05
ascending node uncertainty (°)6.8311E-05
inclination uncertainty (°)6.4495E-06
eccentricity uncertainty 6.0222E-08
perihelion distance uncertainty (AU)1.3773E-07
Minimum Orbit Intersection Distances (in AU)
for orbit epoch: 2460400.5, reference: E2024-CI1
Mercury1.53714
Venus1.26297
Earth0.97756
Mars0.3886
Jupiter2.37741
Saturn6.5485
Uranus16.349
Neptune27.2365

Observations

1109 total observations over interval: 1999 05 13.37991 – 2023 08 06.293492
These data are available for download (format description).

Date (UT) J2000 RA J2000 Dec Magn Location Ref
1999 05 13.37991 16 39 59.41 -19 59 59.1 18.3   704 – Lincoln Laboratory ETS, New Mexico MPS 5208
1999 05 13.39500 16 39 58.63 -19 59 54.4 19.1   704 – Lincoln Laboratory ETS, New Mexico MPS 5208
1999 05 13.41009 16 39 57.82 -19 59 47.8 19.2   704 – Lincoln Laboratory ETS, New Mexico MPS 5208
1999 05 13.42517 16 39 57.18 -19 59 40.6 19.2   704 – Lincoln Laboratory ETS, New Mexico MPS 5208
1999 05 18.29995 16 35 50.59 -19 28 40.2 18.5   704 – Lincoln Laboratory ETS, New Mexico MPS 5208
1999 05 18.32781 16 35 48.99 -19 28 30.0 18.6   704 – Lincoln Laboratory ETS, New Mexico MPS 5208
1999 05 18.34172 16 35 48.13 -19 28 23.7 18.6   704 – Lincoln Laboratory ETS, New Mexico MPS 5208
1999 05 18.35559 16 35 47.40 -19 28 18.5 18.9   704 – Lincoln Laboratory ETS, New Mexico MPS 5208
1999 05 19.30208 16 34 56.74 -19 22 09.5 19.0   704 – Lincoln Laboratory ETS, New Mexico MPS 9924
1999 05 19.31612 16 34 55.87 -19 22 05.0 19.1   704 – Lincoln Laboratory ETS, New Mexico MPS 9924
1999 05 19.33030 16 34 55.16 -19 22 00.5 18.7   704 – Lincoln Laboratory ETS, New Mexico MPS 9924
1999 05 19.34435 16 34 54.22 -19 21 55.1 18.7   704 – Lincoln Laboratory ETS, New Mexico MPS 9924
1999 05 19.35837 16 34 53.25 -19 21 47.3 19.5   704 – Lincoln Laboratory ETS, New Mexico MPS 9924
1999 06 11.26125 16 13 41.28 -16 59 37.6 18.8 R 703 – Catalina Sky Survey MPS 8504
1999 06 11.27428 16 13 40.59 -16 59 32.0 18.7 R 703 – Catalina Sky Survey MPS 8504
1999 06 11.28728 16 13 39.82 -16 59 27.5 18.2 R 703 – Catalina Sky Survey MPS 8504
1999 06 11.30060 16 13 39.17 -16 59 22.9 18.6 R 703 – Catalina Sky Survey MPS 8504
1999 06 15.24370 16 10 37.62 -16 39 17.9 18.8   704 – Lincoln Laboratory ETS, New Mexico MPS 8504
1999 06 15.25588 16 10 37.00 -16 39 14.1 19.3   704 – Lincoln Laboratory ETS, New Mexico MPS 8504
1999 06 15.26802 16 10 36.45 -16 39 10.2 19.4   704 – Lincoln Laboratory ETS, New Mexico MPS 8504
1999 06 15.28020 16 10 35.84 -16 39 07.6 19.1   704 – Lincoln Laboratory ETS, New Mexico MPS 8504
2000 10 03.25193 01 47 29.86 +15 46 55.4 19.3   704 – Lincoln Laboratory ETS, New Mexico MPS 62698
2000 10 03.26745 01 47 29.12 +15 46 49.1 19.6   704 – Lincoln Laboratory ETS, New Mexico MPS 62698
2000 10 03.28329 01 47 28.29 +15 46 42.2 19.8   704 – Lincoln Laboratory ETS, New Mexico MPS 62698
2000 10 03.32683 01 47 25.90 +15 46 27.1 19.9   704 – Lincoln Laboratory ETS, New Mexico MPS 62698
2000 11 20.24513 01 08 34.40 +10 07 11.5 19.6   704 – Lincoln Laboratory ETS, New Mexico MPS 23034
2000 11 20.25998 01 08 34.13 +10 07 06.5 20.1   704 – Lincoln Laboratory ETS, New Mexico MPS 23034
2000 11 20.27484 01 08 33.75 +10 06 59.8 20.2   704 – Lincoln Laboratory ETS, New Mexico MPS 23034
2000 11 26.17147 01 06 37.90 +09 38 17.3 20.5 V 691 – Steward Observatory, Kitt Peak-Spacewatch MPS 23034
2000 11 26.19348 01 06 37.54 +09 38 11.8 20.3 V 691 – Steward Observatory, Kitt Peak-Spacewatch MPS 23034
2000 11 26.21590 01 06 37.18 +09 38 05.6 20.4 V 691 – Steward Observatory, Kitt Peak-Spacewatch MPS 23034
2002 01 13.53764 10 22 43.68 +00 06 41.4 19.6   644 – Palomar Mountain/NEAT MPS 48656
2002 01 13.54825 10 22 43.51 +00 06 39.7 19.9   644 – Palomar Mountain/NEAT MPS 48656
2002 01 13.55907 10 22 43.36 +00 06 38.2 20.0   644 – Palomar Mountain/NEAT MPS 48656
2002 02 07.44843 10 08 28.04 +00 09 54.4 18.4   644 – Palomar Mountain/NEAT MPS 48656
2002 02 07.46219 10 08 27.28 +00 09 56.7 18.2   644 – Palomar Mountain/NEAT MPS 48656
2002 02 07.47503 10 08 26.58 +00 09 59.4 18.3   644 – Palomar Mountain/NEAT MPS 48656
2002 02 08.39468 10 07 37.72 +00 13 01.0 18.9   704 – Lincoln Laboratory ETS, New Mexico MPS 51524
2002 02 08.40900 10 07 36.99 +00 13 03.3 18.5   704 – Lincoln Laboratory ETS, New Mexico MPS 51524
2002 02 08.42396 10 07 36.17 +00 13 06.0 18.3   704 – Lincoln Laboratory ETS, New Mexico MPS 51524
2002 02 08.43883 10 07 35.35 +00 13 09.4 18.6   704 – Lincoln Laboratory ETS, New Mexico MPS 51524
2002 02 11.32695 10 04 57.10 +00 23 53.4 18.0   704 – Lincoln Laboratory ETS, New Mexico MPS 51524
2002 02 11.34143 10 04 56.20 +00 23 56.5 18.7   704 – Lincoln Laboratory ETS, New Mexico MPS 51524
2002 02 11.35602 10 04 55.45 +00 24 01.1 18.9   704 – Lincoln Laboratory ETS, New Mexico MPS 51524
2002 02 11.37061 10 04 54.48 +00 24 04.1 18.6   704 – Lincoln Laboratory ETS, New Mexico MPS 51524
2002 02 11.38517 10 04 53.66 +00 24 08.3 18.5   704 – Lincoln Laboratory ETS, New Mexico MPS 51524
2002 02 15.31973 10 01 08.52 +00 41 44.1 18.4   704 – Lincoln Laboratory ETS, New Mexico MPS 51524
2002 02 15.33409 10 01 07.66 +00 41 48.3 18.7   704 – Lincoln Laboratory ETS, New Mexico MPS 51524
2002 02 15.34857 10 01 06.79 +00 41 52.8 18.5   704 – Lincoln Laboratory ETS, New Mexico MPS 51524
2002 02 15.36301 10 01 05.94 +00 41 57.1 18.7   704 – Lincoln Laboratory ETS, New Mexico MPS 51524
2002 02 15.37747 10 01 05.02 +00 42 01.4 18.5   704 – Lincoln Laboratory ETS, New Mexico MPS 51524
2002 02 17.31775 09 59 11.69 +00 51 50.3 18.0   644 – Palomar Mountain/NEAT MPS 51524
2002 02 17.33874 09 59 10.40 +00 51 57.0 18.1   644 – Palomar Mountain/NEAT MPS 51524
2002 02 17.36205 09 59 08.97 +00 52 04.1 18.6   644 – Palomar Mountain/NEAT MPS 51524
2002 03 10.16442 09 40 27.85 +03 05 58.0 18.3   644 – Palomar Mountain/NEAT MPS 51524
2002 03 10.17763 09 40 27.26 +03 06 03.7 18.4   644 – Palomar Mountain/NEAT MPS 51524
2002 03 10.19243 09 40 26.59 +03 06 10.0 18.4   644 – Palomar Mountain/NEAT MPS 51524
2002 03 12.22524 09 39 02.14 +03 20 14.4 18.3   704 – Lincoln Laboratory ETS, New Mexico MPS 51524
2002 03 12.24383 09 39 01.35 +03 20 22.2 18.8   704 – Lincoln Laboratory ETS, New Mexico MPS 51524
2002 03 12.26250 09 39 00.52 +03 20 29.9 18.9   704 – Lincoln Laboratory ETS, New Mexico MPS 51524
2002 03 12.28104 09 38 59.81 +03 20 36.6 18.8   704 – Lincoln Laboratory ETS, New Mexico MPS 51524
2002 03 12.29967 09 38 59.01 +03 20 44.5 18.7   704 – Lincoln Laboratory ETS, New Mexico MPS 51524
2002 03 14.22945 09 37 46.07 +03 33 59.4 18.9   644 – Palomar Mountain/NEAT MPS 51524
2002 03 14.25039 09 37 45.27 +03 34 08.1 18.9   644 – Palomar Mountain/NEAT MPS 51524
2002 03 14.27172 09 37 44.43 +03 34 16.8 18.8   644 – Palomar Mountain/NEAT MPS 51524
2002 03 16.26263 09 36 35.90 +03 47 43.8 18.9   704 – Lincoln Laboratory ETS, New Mexico MPS 51524
2002 03 16.27573 09 36 35.46 +03 47 48.5 18.8   704 – Lincoln Laboratory ETS, New Mexico MPS 51524
2002 03 16.28929 09 36 35.00 +03 47 54.3 18.9   704 – Lincoln Laboratory ETS, New Mexico MPS 51524
2002 03 16.30276 09 36 34.53 +03 47 59.1 19.0   704 – Lincoln Laboratory ETS, New Mexico MPS 51524
2002 03 18.40608 09 35 30.58 +04 01 55.1 20.1   608 – Haleakala-AMOS MPS 51524
2002 03 18.41689 09 35 30.22 +04 01 59.0 19.8   608 – Haleakala-AMOS MPS 51524
2002 03 18.42778 09 35 29.89 +04 02 03.2 19.9   608 – Haleakala-AMOS MPS 51524
2002 04 14.20563 09 35 09.27 +06 09 58.3 19.1   704 – Lincoln Laboratory ETS, New Mexico MPS 54368
2002 04 14.22052 09 35 09.63 +06 10 01.5 19.5   704 – Lincoln Laboratory ETS, New Mexico MPS 54368
2002 04 14.23440 09 35 10.05 +06 10 01.6 19.7   704 – Lincoln Laboratory ETS, New Mexico MPS 54368
2002 04 14.26271 09 35 10.63 +06 10 07.1 19.5   704 – Lincoln Laboratory ETS, New Mexico MPS 54368
2003 08 20.32090 22 21 12.04 +00 11 39.5 18.6   644 – Palomar Mountain/NEAT MPS 82937
2003 08 20.34544 22 21 10.61 +00 11 31.5 18.6   644 – Palomar Mountain/NEAT MPS 82937
2003 08 20.38428 22 21 08.36 +00 11 18.9 18.5   644 – Palomar Mountain/NEAT MPS 82937
2003 08 22.21502 22 19 25.62 +00 01 06.4 19.1   644 – Palomar Mountain/NEAT MPS 83185
2003 08 22.23572 22 19 24.42 +00 00 58.9 18.9   644 – Palomar Mountain/NEAT MPS 83185
2003 08 22.28593 22 19 21.48 +00 00 41.8 18.8   644 – Palomar Mountain/NEAT MPS 83185
2003 08 22.32140 22 19 19.40 +00 00 29.8 18.8   644 – Palomar Mountain/NEAT MPS 83185
2003 08 22.35890 22 19 17.23 +00 00 16.6 18.9   644 – Palomar Mountain/NEAT MPS 83185
2003 08 22.38470 22 19 15.69 +00 00 08.1 19.0   644 – Palomar Mountain/NEAT MPS 83185
2003 09 02.25882 22 09 05.07 -01 08 41.1 19.7   704 – Lincoln Laboratory ETS, New Mexico MPS 83904
2003 09 02.27074 22 09 04.30 -01 08 46.4 19.3   704 – Lincoln Laboratory ETS, New Mexico MPS 83904
